Year,Month,Day,Hour,Minute,Value (Times are PST for temperature in C)
2016,05,07,00,00,9.80
2016,05,07,00,01,9.90
2016,05,07,00,02,9.90
2016,05,07,00,03,9.90
2016,05,07,00,04,9.90
2016,05,07,00,05,9.90
2016,05,07,00,06,9.90
2016,05,07,00,07,9.90
2016,05,07,00,08,9.80
2016,05,07,00,09,9.80
2016,05,07,00,10,9.80
2016,05,07,00,11,9.80
2016,05,07,00,12,9.80
2016,05,07,00,13,9.80
2016,05,07,00,14,9.80
2016,05,07,00,15,9.80
2016,05,07,00,16,9.70
2016,05,07,00,17,9.70
2016,05,07,00,18,9.70
2016,05,07,00,19,9.60
2016,05,07,00,20,9.60
2016,05,07,00,21,9.60
2016,05,07,00,22,9.60
2016,05,07,00,23,9.50
2016,05,07,00,24,9.50
2016,05,07,00,25,9.50
2016,05,07,00,26,9.60
2016,05,07,00,27,9.60
2016,05,07,00,28,9.60
2016,05,07,00,29,9.60
2016,05,07,00,30,9.60
2016,05,07,00,31,9.60
2016,05,07,00,32,9.60
2016,05,07,00,33,9.60
2016,05,07,00,34,9.60
2016,05,07,00,35,9.60
2016,05,07,00,36,9.60
2016,05,07,00,37,9.60
2016,05,07,00,38,9.70
2016,05,07,00,39,9.70
2016,05,07,00,40,9.70
2016,05,07,00,41,9.70
2016,05,07,00,42,9.70
2016,05,07,00,43,9.70
2016,05,07,00,44,9.70
2016,05,07,00,45,9.60
2016,05,07,00,46,9.60
2016,05,07,00,47,9.60
2016,05,07,00,48,9.60
2016,05,07,00,49,9.50
2016,05,07,00,50,9.50
2016,05,07,00,51,9.50
2016,05,07,00,52,9.40
2016,05,07,00,53,9.40
2016,05,07,00,54,9.40
2016,05,07,00,55,9.40
2016,05,07,00,56,9.40
2016,05,07,00,57,9.40
2016,05,07,00,58,9.30
2016,05,07,00,59,9.30
2016,05,07,01,00,9.30
2016,05,07,01,01,9.30
2016,05,07,01,02,9.30
2016,05,07,01,03,9.30
2016,05,07,01,04,9.30
2016,05,07,01,05,9.20
2016,05,07,01,06,9.20
2016,05,07,01,07,9.20
2016,05,07,01,08,9.20
2016,05,07,01,09,9.10
2016,05,07,01,10,9.10
2016,05,07,01,11,9.10
2016,05,07,01,12,9.10
2016,05,07,01,13,9.10
2016,05,07,01,14,9.10
2016,05,07,01,15,9.10
2016,05,07,01,16,9.00
2016,05,07,01,17,9.00
2016,05,07,01,18,9.00
2016,05,07,01,19,8.90
2016,05,07,01,20,8.90
2016,05,07,01,21,8.90
2016,05,07,01,22,8.90
2016,05,07,01,23,8.90
2016,05,07,01,24,8.90
2016,05,07,01,25,8.90
2016,05,07,01,26,8.80
2016,05,07,01,27,8.80
2016,05,07,01,28,8.80
2016,05,07,01,29,8.80
2016,05,07,01,30,8.80
2016,05,07,01,31,8.80
2016,05,07,01,32,8.90
2016,05,07,01,33,8.90
2016,05,07,01,34,9.00
2016,05,07,01,35,9.00
2016,05,07,01,36,9.10
2016,05,07,01,37,9.10
2016,05,07,01,38,9.20
2016,05,07,01,39,9.20
2016,05,07,01,40,9.20
2016,05,07,01,41,9.10
2016,05,07,01,42,9.10
2016,05,07,01,43,9.10
2016,05,07,01,44,9.10
2016,05,07,01,45,9.10
2016,05,07,01,46,9.10
2016,05,07,01,47,9.00
2016,05,07,01,48,9.00
2016,05,07,01,49,9.00
2016,05,07,01,50,8.90
2016,05,07,01,51,8.90
2016,05,07,01,52,8.90
2016,05,07,01,53,8.90
2016,05,07,01,54,8.80
2016,05,07,01,55,8.80
2016,05,07,01,56,8.80
2016,05,07,01,57,8.80
2016,05,07,01,58,8.80
2016,05,07,01,59,8.80
2016,05,07,02,00,8.70
2016,05,07,02,01,8.70
2016,05,07,02,02,8.70
2016,05,07,02,03,8.70
2016,05,07,02,04,8.80
2016,05,07,02,05,8.80
2016,05,07,02,06,8.80
2016,05,07,02,07,8.70
2016,05,07,02,08,8.70
2016,05,07,02,09,8.70
2016,05,07,02,10,8.70
2016,05,07,02,11,8.70
2016,05,07,02,12,8.70
2016,05,07,02,13,8.70
2016,05,07,02,14,8.70
2016,05,07,02,15,8.70
2016,05,07,02,16,8.70
2016,05,07,02,17,8.70
2016,05,07,02,18,8.70
2016,05,07,02,19,8.70
2016,05,07,02,20,8.60
2016,05,07,02,21,8.60
2016,05,07,02,22,8.50
2016,05,07,02,23,8.50
2016,05,07,02,24,8.40
2016,05,07,02,25,8.40
2016,05,07,02,26,8.30
2016,05,07,02,27,8.30
2016,05,07,02,28,8.30
2016,05,07,02,29,8.20
2016,05,07,02,30,8.20
2016,05,07,02,31,8.10
2016,05,07,02,32,8.10
2016,05,07,02,33,8.00
2016,05,07,02,34,7.90
2016,05,07,02,35,7.80
2016,05,07,02,36,7.80
2016,05,07,02,37,7.70
2016,05,07,02,38,7.70
2016,05,07,02,39,7.60
2016,05,07,02,40,7.60
2016,05,07,02,41,7.50
2016,05,07,02,42,7.50
2016,05,07,02,43,7.40
2016,05,07,02,44,7.40
2016,05,07,02,45,7.30
2016,05,07,02,46,7.30
2016,05,07,02,47,7.30
2016,05,07,02,48,7.30
2016,05,07,02,49,7.30
2016,05,07,02,50,7.20
2016,05,07,02,51,7.20
2016,05,07,02,52,7.20
2016,05,07,02,53,7.20
2016,05,07,02,54,7.20
2016,05,07,02,55,7.20
2016,05,07,02,56,7.20
2016,05,07,02,57,7.20
2016,05,07,02,58,7.20
2016,05,07,02,59,7.20
2016,05,07,03,00,7.10
2016,05,07,03,01,7.10
2016,05,07,03,02,7.10
2016,05,07,03,03,7.00
2016,05,07,03,04,7.00
2016,05,07,03,05,6.90
2016,05,07,03,06,6.90
2016,05,07,03,07,7.00
2016,05,07,03,08,7.00
2016,05,07,03,09,7.10
2016,05,07,03,10,7.10
2016,05,07,03,11,7.10
2016,05,07,03,12,7.10
2016,05,07,03,13,7.20
2016,05,07,03,14,7.20
2016,05,07,03,15,7.20
2016,05,07,03,16,7.20
2016,05,07,03,17,7.20
2016,05,07,03,18,7.20
2016,05,07,03,19,7.20
2016,05,07,03,20,7.20
2016,05,07,03,21,7.20
2016,05,07,03,22,7.20
2016,05,07,03,23,7.20
2016,05,07,03,24,7.20
2016,05,07,03,25,7.20
2016,05,07,03,26,7.10
2016,05,07,03,27,7.10
2016,05,07,03,28,7.10
2016,05,07,03,29,7.00
2016,05,07,03,30,6.90
2016,05,07,03,31,6.90
2016,05,07,03,32,6.90
2016,05,07,03,33,6.90
2016,05,07,03,34,6.90
2016,05,07,03,35,6.90
2016,05,07,03,36,6.80
2016,05,07,03,37,6.80
2016,05,07,03,38,6.80
2016,05,07,03,39,6.80
2016,05,07,03,40,6.70
2016,05,07,03,41,6.70
2016,05,07,03,42,6.70
2016,05,07,03,43,6.70
2016,05,07,03,44,6.60
2016,05,07,03,45,6.60
2016,05,07,03,46,6.50
2016,05,07,03,47,6.40
2016,05,07,03,48,6.40
2016,05,07,03,49,6.40
2016,05,07,03,50,6.30
2016,05,07,03,51,6.30
2016,05,07,03,52,6.30
2016,05,07,03,53,6.20
2016,05,07,03,54,6.20
2016,05,07,03,55,6.10
2016,05,07,03,56,6.10
2016,05,07,03,57,6.00
2016,05,07,03,58,5.90
2016,05,07,03,59,5.90
2016,05,07,04,00,5.80
2016,05,07,04,01,5.80
2016,05,07,04,02,5.70
2016,05,07,04,03,5.70
2016,05,07,04,04,5.70
2016,05,07,04,05,5.60
2016,05,07,04,06,5.60
2016,05,07,04,07,5.50
2016,05,07,04,08,5.40
2016,05,07,04,09,5.40
2016,05,07,04,10,5.30
2016,05,07,04,11,5.30
2016,05,07,04,12,5.20
2016,05,07,04,13,5.20
2016,05,07,04,14,5.10
2016,05,07,04,15,5.00
2016,05,07,04,16,5.00
2016,05,07,04,17,4.90
2016,05,07,04,18,4.90
2016,05,07,04,19,4.80
2016,05,07,04,20,4.70
2016,05,07,04,21,4.70
2016,05,07,04,22,4.60
2016,05,07,04,23,4.60
2016,05,07,04,24,4.60
2016,05,07,04,25,4.60
2016,05,07,04,26,4.60
2016,05,07,04,27,4.60
2016,05,07,04,28,4.60
2016,05,07,04,29,4.60
2016,05,07,04,30,4.40
2016,05,07,04,31,4.30
2016,05,07,04,32,4.30
2016,05,07,04,33,4.30
2016,05,07,04,34,4.30
2016,05,07,04,35,4.30
2016,05,07,04,36,4.30
2016,05,07,04,37,4.20
2016,05,07,04,38,4.20
2016,05,07,04,39,4.20
2016,05,07,04,40,4.20
2016,05,07,04,41,4.20
2016,05,07,04,42,4.30
2016,05,07,04,43,4.30
2016,05,07,04,44,4.40
2016,05,07,04,45,4.60
2016,05,07,04,46,4.60
2016,05,07,04,47,4.70
2016,05,07,04,48,4.70
2016,05,07,04,49,4.80
2016,05,07,04,50,4.80
2016,05,07,04,51,4.90
2016,05,07,04,52,4.90
2016,05,07,04,53,4.90
2016,05,07,04,54,4.90
2016,05,07,04,55,5.00
2016,05,07,04,56,5.00
2016,05,07,04,57,5.00
2016,05,07,04,58,5.00
2016,05,07,04,59,5.00
2016,05,07,05,00,5.00
2016,05,07,05,01,5.00
2016,05,07,05,02,5.00
2016,05,07,05,03,5.00
2016,05,07,05,04,5.00
2016,05,07,05,05,4.90
2016,05,07,05,06,4.90
2016,05,07,05,07,4.80
2016,05,07,05,08,4.80
2016,05,07,05,09,4.80
2016,05,07,05,10,4.70
2016,05,07,05,11,4.70
2016,05,07,05,12,4.70
2016,05,07,05,13,4.70
2016,05,07,05,14,4.70
2016,05,07,05,15,4.70
2016,05,07,05,16,4.70
2016,05,07,05,17,4.70
2016,05,07,05,18,4.70
2016,05,07,05,19,4.60
2016,05,07,05,20,4.60
2016,05,07,05,21,4.60
2016,05,07,05,22,4.60
2016,05,07,05,23,4.60
2016,05,07,05,24,4.50
2016,05,07,05,25,4.50
2016,05,07,05,26,4.50
2016,05,07,05,27,4.50
2016,05,07,05,28,4.40
2016,05,07,05,29,4.40
2016,05,07,05,30,4.40
2016,05,07,05,31,4.50
2016,05,07,05,32,4.50
2016,05,07,05,33,4.60
2016,05,07,05,34,4.60
2016,05,07,05,35,4.60
2016,05,07,05,36,4.60
2016,05,07,05,37,4.50
2016,05,07,05,38,4.50
2016,05,07,05,39,4.50
2016,05,07,05,40,4.40
2016,05,07,05,41,4.40
2016,05,07,05,42,4.30
2016,05,07,05,43,4.30
2016,05,07,05,44,4.30
2016,05,07,05,45,4.20
2016,05,07,05,46,4.20
2016,05,07,05,47,4.10
2016,05,07,05,48,4.10
2016,05,07,05,49,4.10
2016,05,07,05,50,4.00
2016,05,07,05,51,4.00
2016,05,07,05,52,3.90
2016,05,07,05,53,3.90
2016,05,07,05,54,3.90
2016,05,07,05,55,3.80
2016,05,07,05,56,3.80
2016,05,07,05,57,3.80
2016,05,07,05,58,3.80
2016,05,07,05,59,3.80
2016,05,07,06,00,3.80
2016,05,07,06,01,3.70
2016,05,07,06,02,3.70
2016,05,07,06,03,3.70
2016,05,07,06,04,3.70
2016,05,07,06,05,3.70
2016,05,07,06,06,3.70
2016,05,07,06,07,3.70
2016,05,07,06,08,3.70
2016,05,07,06,09,3.70
2016,05,07,06,10,3.80
2016,05,07,06,11,3.90
2016,05,07,06,12,4.00
2016,05,07,06,13,4.00
2016,05,07,06,14,4.10
2016,05,07,06,15,4.10
2016,05,07,06,16,4.10
2016,05,07,06,17,4.10
2016,05,07,06,18,4.10
2016,05,07,06,19,4.10
2016,05,07,06,20,4.10
2016,05,07,06,21,4.20
2016,05,07,06,22,4.10
2016,05,07,06,23,4.10
2016,05,07,06,24,4.20
2016,05,07,06,25,4.20
2016,05,07,06,26,4.20
2016,05,07,06,27,4.20
2016,05,07,06,28,4.20
2016,05,07,06,29,4.10
2016,05,07,06,30,4.10
2016,05,07,06,31,4.10
2016,05,07,06,32,4.10
2016,05,07,06,33,4.20
2016,05,07,06,34,4.20
2016,05,07,06,35,4.20
2016,05,07,06,36,4.20
2016,05,07,06,37,4.10
2016,05,07,06,38,4.10
2016,05,07,06,39,4.10
2016,05,07,06,40,4.00
2016,05,07,06,41,4.00
2016,05,07,06,42,4.00
2016,05,07,06,43,3.90
2016,05,07,06,44,3.90
2016,05,07,06,45,3.90
2016,05,07,06,46,3.80
2016,05,07,06,47,3.80
2016,05,07,06,48,3.80
2016,05,07,06,49,3.80
2016,05,07,06,50,3.80
2016,05,07,06,51,3.80
2016,05,07,06,52,3.80
2016,05,07,06,53,3.80
2016,05,07,06,54,3.80
2016,05,07,06,55,3.80
2016,05,07,06,56,3.80
2016,05,07,06,57,3.80
2016,05,07,06,58,3.80
2016,05,07,06,59,3.80
2016,05,07,07,00,3.80
2016,05,07,07,01,3.80
2016,05,07,07,02,3.80
2016,05,07,07,03,3.80
2016,05,07,07,04,3.90
2016,05,07,07,05,3.90
2016,05,07,07,06,3.90
2016,05,07,07,07,3.90
2016,05,07,07,08,4.00
2016,05,07,07,09,4.00
2016,05,07,07,10,4.10
2016,05,07,07,11,4.10
2016,05,07,07,12,4.10
2016,05,07,07,13,4.20
2016,05,07,07,14,4.20
2016,05,07,07,15,4.30
2016,05,07,07,16,4.30
2016,05,07,07,17,4.40
2016,05,07,07,18,4.40
2016,05,07,07,19,4.50
2016,05,07,07,20,4.50
2016,05,07,07,21,4.60
2016,05,07,07,22,4.70
2016,05,07,07,23,4.70
2016,05,07,07,24,4.80
2016,05,07,07,25,4.90
2016,05,07,07,26,5.00
2016,05,07,07,27,5.00
2016,05,07,07,28,5.10
2016,05,07,07,29,5.10
2016,05,07,07,30,5.10
2016,05,07,07,31,5.10
2016,05,07,07,32,5.20
2016,05,07,07,33,5.20
2016,05,07,07,34,5.30
2016,05,07,07,35,5.40
2016,05,07,07,36,5.50
2016,05,07,07,37,5.50
2016,05,07,07,38,5.60
2016,05,07,07,39,5.70
2016,05,07,07,40,5.80
2016,05,07,07,41,5.80
2016,05,07,07,42,5.90
2016,05,07,07,43,6.00
2016,05,07,07,44,6.00
2016,05,07,07,45,6.10
2016,05,07,07,46,6.20
2016,05,07,07,47,6.20
2016,05,07,07,48,6.20
2016,05,07,07,49,6.20
2016,05,07,07,50,6.20
2016,05,07,07,51,6.20
2016,05,07,07,52,6.30
2016,05,07,07,53,6.30
2016,05,07,07,54,6.40
2016,05,07,07,55,6.50
2016,05,07,07,56,6.60
2016,05,07,07,57,6.80
2016,05,07,07,58,7.00
2016,05,07,07,59,7.20
2016,05,07,08,00,7.40
2016,05,07,08,01,7.60
2016,05,07,08,02,7.80
2016,05,07,08,03,8.10
2016,05,07,08,04,8.30
2016,05,07,08,05,8.50
2016,05,07,08,06,8.80
2016,05,07,08,07,9.00
2016,05,07,08,08,9.20
2016,05,07,08,09,9.40
2016,05,07,08,10,9.70
2016,05,07,08,11,9.90
2016,05,07,08,12,10.30
2016,05,07,08,13,10.50
2016,05,07,08,14,10.80
2016,05,07,08,15,11.10
2016,05,07,08,16,11.30
2016,05,07,08,17,11.60
2016,05,07,08,18,11.80
2016,05,07,08,19,12.00
2016,05,07,08,20,12.10
2016,05,07,08,21,12.10
2016,05,07,08,22,12.10
2016,05,07,08,23,12.90
2016,05,07,08,24,13.10
2016,05,07,08,25,13.30
2016,05,07,08,26,13.50
2016,05,07,08,27,13.60
2016,05,07,08,28,13.80
2016,05,07,08,29,13.90
2016,05,07,08,30,14.00
2016,05,07,08,31,14.10
2016,05,07,08,32,14.30
2016,05,07,08,33,14.40
2016,05,07,08,34,14.50
2016,05,07,08,35,14.60
2016,05,07,08,36,14.60
2016,05,07,08,37,14.60
2016,05,07,08,38,14.70
2016,05,07,08,39,14.70
2016,05,07,08,40,14.60
2016,05,07,08,41,14.60
2016,05,07,08,42,14.60
2016,05,07,08,43,14.60
2016,05,07,08,44,14.50
2016,05,07,08,45,14.50
2016,05,07,08,46,14.40
2016,05,07,08,47,14.40
2016,05,07,08,48,14.40
2016,05,07,08,49,14.40
2016,05,07,08,50,14.40
2016,05,07,08,51,14.40
2016,05,07,08,52,14.40
2016,05,07,08,53,14.40
2016,05,07,08,54,14.40
2016,05,07,08,55,14.50
2016,05,07,08,56,14.50
2016,05,07,08,57,14.50
2016,05,07,08,58,14.50
2016,05,07,08,59,14.60
2016,05,07,09,00,14.60
2016,05,07,09,01,14.60
2016,05,07,09,02,14.70
2016,05,07,09,03,14.80
2016,05,07,09,04,14.80
2016,05,07,09,05,14.80
2016,05,07,09,06,15.00
2016,05,07,09,07,15.30
2016,05,07,09,08,15.50
2016,05,07,09,09,15.70
2016,05,07,09,10,16.00
2016,05,07,09,11,16.30
2016,05,07,09,12,16.60
2016,05,07,09,13,16.80
2016,05,07,09,14,17.00
2016,05,07,09,15,17.40
2016,05,07,09,16,17.80
2016,05,07,09,17,18.00
2016,05,07,09,18,18.30
2016,05,07,09,19,18.40
2016,05,07,09,20,18.80
2016,05,07,09,21,19.10
2016,05,07,09,22,19.40
2016,05,07,09,23,19.70
2016,05,07,09,24,20.00
2016,05,07,09,25,20.20
2016,05,07,09,26,20.50
2016,05,07,09,27,20.80
2016,05,07,09,28,21.00
2016,05,07,09,29,21.20
2016,05,07,09,30,21.40
2016,05,07,09,31,21.60
2016,05,07,09,32,21.70
2016,05,07,09,33,21.90
2016,05,07,09,34,22.00
2016,05,07,09,35,22.10
2016,05,07,09,36,22.30
2016,05,07,09,37,22.40
2016,05,07,09,38,22.50
2016,05,07,09,39,22.60
2016,05,07,09,40,22.80
2016,05,07,09,41,22.90
2016,05,07,09,42,23.10
2016,05,07,09,43,23.20
2016,05,07,09,44,23.30
2016,05,07,09,45,23.40
2016,05,07,09,46,23.50
2016,05,07,09,47,23.60
2016,05,07,09,48,23.70
2016,05,07,09,49,23.80
2016,05,07,09,50,23.90
2016,05,07,09,51,24.00
2016,05,07,09,52,24.10
2016,05,07,09,53,24.20
2016,05,07,09,54,24.30
2016,05,07,09,55,24.40
2016,05,07,09,56,24.60
2016,05,07,09,57,24.70
2016,05,07,09,58,24.80
2016,05,07,09,59,24.90
2016,05,07,10,00,25.00
2016,05,07,10,01,25.00
2016,05,07,10,02,25.10
2016,05,07,10,03,25.20
2016,05,07,10,04,25.30
2016,05,07,10,05,25.30
2016,05,07,10,06,25.40
2016,05,07,10,07,25.50
2016,05,07,10,08,25.70
2016,05,07,10,09,25.80
2016,05,07,10,10,25.90
2016,05,07,10,11,26.00
2016,05,07,10,12,26.10
2016,05,07,10,13,26.20
2016,05,07,10,14,26.30
2016,05,07,10,15,26.40
2016,05,07,10,16,26.30
2016,05,07,10,17,26.30
2016,05,07,10,18,26.30
2016,05,07,10,19,26.40
2016,05,07,10,20,26.40
2016,05,07,10,21,26.40
2016,05,07,10,22,26.50
2016,05,07,10,23,26.60
2016,05,07,10,24,26.80
2016,05,07,10,25,26.90
2016,05,07,10,26,27.00
2016,05,07,10,27,27.10
2016,05,07,10,28,27.20
2016,05,07,10,29,27.30
2016,05,07,10,30,27.30
2016,05,07,10,31,27.40
2016,05,07,10,32,27.50
2016,05,07,10,33,27.50
2016,05,07,10,34,27.60
2016,05,07,10,35,27.70
2016,05,07,10,36,27.80
2016,05,07,10,37,27.80
2016,05,07,10,38,27.90
2016,05,07,10,39,27.90
2016,05,07,10,40,27.90
2016,05,07,10,41,28.00
2016,05,07,10,42,28.00
2016,05,07,10,43,28.00
2016,05,07,10,44,28.00
2016,05,07,10,45,28.10
2016,05,07,10,46,28.10
2016,05,07,10,47,28.10
2016,05,07,10,48,28.20
2016,05,07,10,49,28.20
2016,05,07,10,50,28.10
2016,05,07,10,51,28.00
2016,05,07,10,52,27.80
2016,05,07,10,53,27.80
2016,05,07,10,54,27.70
2016,05,07,10,55,27.60
2016,05,07,10,56,27.60
2016,05,07,10,57,27.70
2016,05,07,10,58,27.80
2016,05,07,10,59,27.90
2016,05,07,11,00,27.90
2016,05,07,11,01,28.00
2016,05,07,11,02,28.00
2016,05,07,11,03,28.00
2016,05,07,11,04,28.00
2016,05,07,11,05,28.00
2016,05,07,11,06,28.00
2016,05,07,11,07,28.10
2016,05,07,11,08,28.20
2016,05,07,11,09,28.20
2016,05,07,11,10,28.20
2016,05,07,11,11,28.30
2016,05,07,11,12,28.30
2016,05,07,11,13,28.30
2016,05,07,11,14,28.40
2016,05,07,11,15,28.50
2016,05,07,11,16,28.50
2016,05,07,11,17,28.60
2016,05,07,11,18,28.60
2016,05,07,11,19,28.60
2016,05,07,11,20,28.70
2016,05,07,11,21,28.70
2016,05,07,11,22,28.80
2016,05,07,11,23,28.80
2016,05,07,11,24,28.90
2016,05,07,11,25,29.00
2016,05,07,11,26,29.10
2016,05,07,11,27,29.10
2016,05,07,11,28,29.10
2016,05,07,11,29,29.20
2016,05,07,11,30,29.20
2016,05,07,11,31,29.30
2016,05,07,11,32,29.30
2016,05,07,11,33,29.30
2016,05,07,11,34,29.30
2016,05,07,11,35,29.40
2016,05,07,11,36,29.40
2016,05,07,11,37,29.40
2016,05,07,11,38,29.50
2016,05,07,11,39,29.60
2016,05,07,11,40,29.60
2016,05,07,11,41,29.70
2016,05,07,11,42,29.70
2016,05,07,11,43,29.70
2016,05,07,11,44,29.70
2016,05,07,11,45,29.60
2016,05,07,11,46,29.60
2016,05,07,11,47,29.60
2016,05,07,11,48,29.60
2016,05,07,11,49,29.60
2016,05,07,11,50,29.60
2016,05,07,11,51,29.60
2016,05,07,11,52,29.50
2016,05,07,11,53,29.60
2016,05,07,11,54,29.50
2016,05,07,11,55,29.50
2016,05,07,11,56,29.40
2016,05,07,11,57,29.40
2016,05,07,11,58,29.40
2016,05,07,11,59,29.40
2016,05,07,12,00,29.40
2016,05,07,12,01,29.40
2016,05,07,12,02,29.30
2016,05,07,12,03,29.30
2016,05,07,12,04,29.30
2016,05,07,12,05,29.30
2016,05,07,12,06,29.30
2016,05,07,12,07,29.20
2016,05,07,12,08,29.20
2016,05,07,12,09,29.20
2016,05,07,12,10,29.20
2016,05,07,12,11,29.20
2016,05,07,12,12,29.30
2016,05,07,12,13,29.40
2016,05,07,12,14,29.60
2016,05,07,12,15,29.70
2016,05,07,12,16,29.80
2016,05,07,12,17,29.90
2016,05,07,12,18,30.00
2016,05,07,12,19,30.10
2016,05,07,12,20,30.10
2016,05,07,12,21,30.20
2016,05,07,12,22,30.30
2016,05,07,12,23,30.30
2016,05,07,12,24,30.40
2016,05,07,12,25,30.40
2016,05,07,12,26,30.40
2016,05,07,12,27,30.50
2016,05,07,12,28,30.50
2016,05,07,12,29,30.60
2016,05,07,12,30,30.60
2016,05,07,12,31,30.70
2016,05,07,12,32,30.80
2016,05,07,12,33,30.80
2016,05,07,12,34,30.90
2016,05,07,12,35,30.90
2016,05,07,12,36,31.00
2016,05,07,12,37,31.10
2016,05,07,12,38,31.20
2016,05,07,12,39,31.30
2016,05,07,12,40,31.30
2016,05,07,12,41,31.30
2016,05,07,12,42,31.30
2016,05,07,12,43,31.30
2016,05,07,12,44,31.40
2016,05,07,12,45,31.40
2016,05,07,12,46,31.40
2016,05,07,12,47,31.30
2016,05,07,12,48,31.30
2016,05,07,12,49,31.30
2016,05,07,12,50,31.20
2016,05,07,12,51,31.20
2016,05,07,12,52,31.10
2016,05,07,12,53,31.10
2016,05,07,12,54,31.20
2016,05,07,12,55,31.20
2016,05,07,12,56,31.20
2016,05,07,12,57,31.30
2016,05,07,12,58,31.40
2016,05,07,12,59,31.50
2016,05,07,13,00,31.60
2016,05,07,13,01,31.70
2016,05,07,13,02,31.80
2016,05,07,13,03,31.90
2016,05,07,13,04,31.90
2016,05,07,13,05,31.90
2016,05,07,13,06,31.90
2016,05,07,13,07,32.00
2016,05,07,13,08,32.10
2016,05,07,13,09,32.20
2016,05,07,13,10,32.30
2016,05,07,13,11,32.30
2016,05,07,13,12,32.40
2016,05,07,13,13,32.40
2016,05,07,13,14,32.40
2016,05,07,13,15,32.50
2016,05,07,13,16,32.50
2016,05,07,13,17,32.50
2016,05,07,13,18,32.40
2016,05,07,13,19,32.40
2016,05,07,13,20,32.40
2016,05,07,13,21,32.40
2016,05,07,13,22,32.40
2016,05,07,13,23,32.40
2016,05,07,13,24,32.40
2016,05,07,13,25,32.40
2016,05,07,13,26,32.40
2016,05,07,13,27,32.50
2016,05,07,13,28,32.50
2016,05,07,13,29,32.60
2016,05,07,13,30,32.60
2016,05,07,13,31,32.60
2016,05,07,13,32,32.60
2016,05,07,13,33,32.60
2016,05,07,13,34,32.60
2016,05,07,13,35,32.60
2016,05,07,13,36,32.60
2016,05,07,13,37,32.60
2016,05,07,13,38,32.60
2016,05,07,13,39,32.60
2016,05,07,13,40,32.50
2016,05,07,13,41,32.40
2016,05,07,13,42,32.30
2016,05,07,13,43,32.20
2016,05,07,13,44,32.10
2016,05,07,13,45,32.10
2016,05,07,13,46,31.90
2016,05,07,13,47,31.90
2016,05,07,13,48,31.70
2016,05,07,13,49,31.60
2016,05,07,13,50,31.50
2016,05,07,13,51,31.40
2016,05,07,13,52,31.30
2016,05,07,13,53,31.20
2016,05,07,13,54,31.20
2016,05,07,13,55,31.20
2016,05,07,13,56,31.20
2016,05,07,13,57,31.20
2016,05,07,13,58,31.20
2016,05,07,13,59,31.10
2016,05,07,14,00,31.10
2016,05,07,14,01,31.10
2016,05,07,14,02,31.00
2016,05,07,14,03,31.00
2016,05,07,14,04,30.90
2016,05,07,14,05,30.80
2016,05,07,14,06,30.70
2016,05,07,14,07,30.60
2016,05,07,14,08,30.60
2016,05,07,14,09,30.60
2016,05,07,14,10,30.60
2016,05,07,14,11,30.70
2016,05,07,14,12,30.80
2016,05,07,14,13,30.80
2016,05,07,14,14,30.90
2016,05,07,14,15,31.00
2016,05,07,14,16,31.10
2016,05,07,14,17,31.10
2016,05,07,14,18,31.20
2016,05,07,14,19,31.20
2016,05,07,14,20,31.30
2016,05,07,14,21,31.30
2016,05,07,14,22,31.30
2016,05,07,14,23,31.30
2016,05,07,14,24,31.40
2016,05,07,14,25,31.40
2016,05,07,14,26,31.40
2016,05,07,14,27,31.50
2016,05,07,14,28,31.50
2016,05,07,14,29,31.50
2016,05,07,14,30,31.50
2016,05,07,14,31,31.50
2016,05,07,14,32,31.40
2016,05,07,14,33,31.40
2016,05,07,14,34,31.40
2016,05,07,14,35,31.50
2016,05,07,14,36,31.40
2016,05,07,14,37,31.40
2016,05,07,14,38,31.40
2016,05,07,14,39,31.40
2016,05,07,14,40,31.40
2016,05,07,14,41,31.30
2016,05,07,14,42,31.30
2016,05,07,14,43,31.20
2016,05,07,14,44,31.20
2016,05,07,14,45,31.20
2016,05,07,14,46,31.20
2016,05,07,14,47,31.20
2016,05,07,14,48,31.30
2016,05,07,14,49,31.30
2016,05,07,14,50,31.30
2016,05,07,14,51,31.20
2016,05,07,14,52,31.20
2016,05,07,14,53,31.20
2016,05,07,14,54,31.20
2016,05,07,14,55,31.20
2016,05,07,14,56,31.20
2016,05,07,14,57,31.10
2016,05,07,14,58,31.10
2016,05,07,14,59,31.00
2016,05,07,15,00,31.00
2016,05,07,15,01,31.00
2016,05,07,15,02,30.90
2016,05,07,15,03,30.90
2016,05,07,15,04,30.80
2016,05,07,15,05,30.80
2016,05,07,15,06,30.80
2016,05,07,15,07,30.70
2016,05,07,15,08,30.70
2016,05,07,15,09,30.60
2016,05,07,15,10,30.60
2016,05,07,15,11,30.50
2016,05,07,15,12,30.50
2016,05,07,15,13,30.40
2016,05,07,15,14,30.40
2016,05,07,15,15,30.40
2016,05,07,15,16,30.30
2016,05,07,15,17,30.30
2016,05,07,15,18,30.30
2016,05,07,15,19,30.30
2016,05,07,15,20,30.30
2016,05,07,15,21,30.30
2016,05,07,15,22,30.30
2016,05,07,15,23,30.30
2016,05,07,15,24,30.40
2016,05,07,15,25,30.40
2016,05,07,15,26,30.50
2016,05,07,15,27,30.50
2016,05,07,15,28,30.50
2016,05,07,15,29,30.50
2016,05,07,15,30,30.40
2016,05,07,15,31,30.40
2016,05,07,15,32,30.30
2016,05,07,15,33,30.30
2016,05,07,15,34,30.30
2016,05,07,15,35,30.20
2016,05,07,15,36,30.10
2016,05,07,15,37,30.10
2016,05,07,15,38,30.00
2016,05,07,15,39,30.00
2016,05,07,15,40,30.10
2016,05,07,15,41,30.00
2016,05,07,15,42,30.10
2016,05,07,15,43,30.10
2016,05,07,15,44,30.10
2016,05,07,15,45,30.20
2016,05,07,15,46,30.20
2016,05,07,15,47,30.20
2016,05,07,15,48,30.20
2016,05,07,15,49,30.20
2016,05,07,15,50,30.20
2016,05,07,15,51,30.30
2016,05,07,15,52,30.30
2016,05,07,15,53,30.30
2016,05,07,15,54,30.40
2016,05,07,15,55,30.40
2016,05,07,15,56,30.40
2016,05,07,15,57,30.40
2016,05,07,15,58,30.40
2016,05,07,15,59,30.40
2016,05,07,16,00,30.40
2016,05,07,16,01,30.40
2016,05,07,16,02,30.40
2016,05,07,16,03,30.30
2016,05,07,16,04,30.30
2016,05,07,16,05,30.30
2016,05,07,16,06,30.30
2016,05,07,16,07,30.30
2016,05,07,16,08,30.30
2016,05,07,16,09,30.30
2016,05,07,16,10,30.20
2016,05,07,16,11,30.20
2016,05,07,16,12,30.10
2016,05,07,16,13,30.10
2016,05,07,16,14,30.00
2016,05,07,16,15,30.00
2016,05,07,16,16,30.00
2016,05,07,16,17,29.90
2016,05,07,16,18,29.90
2016,05,07,16,19,29.80
2016,05,07,16,20,29.80
2016,05,07,16,21,29.80
2016,05,07,16,22,29.80
2016,05,07,16,23,29.80
2016,05,07,16,24,29.80
2016,05,07,16,25,29.80
2016,05,07,16,26,29.70
2016,05,07,16,27,29.70
2016,05,07,16,28,29.70
2016,05,07,16,29,29.70
2016,05,07,16,30,29.60
2016,05,07,16,31,29.60
2016,05,07,16,32,29.50
2016,05,07,16,33,29.40
2016,05,07,16,34,29.30
2016,05,07,16,35,29.30
2016,05,07,16,36,29.30
2016,05,07,16,37,29.20
2016,05,07,16,38,29.20
2016,05,07,16,39,29.20
2016,05,07,16,40,29.20
2016,05,07,16,41,29.10
2016,05,07,16,42,29.10
2016,05,07,16,43,29.00
2016,05,07,16,44,28.90
2016,05,07,16,45,28.90
2016,05,07,16,46,28.90
2016,05,07,16,47,28.80
2016,05,07,16,48,28.80
2016,05,07,16,49,28.90
2016,05,07,16,50,28.90
2016,05,07,16,51,28.80
2016,05,07,16,52,28.80
2016,05,07,16,53,28.80
2016,05,07,16,54,28.80
2016,05,07,16,55,28.70
2016,05,07,16,56,28.70
2016,05,07,16,57,28.70
2016,05,07,16,58,28.70
2016,05,07,16,59,28.70
2016,05,07,17,00,28.60
2016,05,07,17,01,28.60
2016,05,07,17,02,28.60
2016,05,07,17,03,28.60
2016,05,07,17,04,28.60
2016,05,07,17,05,28.70
2016,05,07,17,06,28.70
2016,05,07,17,07,28.70
2016,05,07,17,08,28.70
2016,05,07,17,09,28.70
2016,05,07,17,10,28.80
2016,05,07,17,11,28.70
2016,05,07,17,12,28.70
2016,05,07,17,13,28.70
2016,05,07,17,14,28.70
2016,05,07,17,15,28.70
2016,05,07,17,16,28.60
2016,05,07,17,17,28.50
2016,05,07,17,18,28.50
2016,05,07,17,19,28.40
2016,05,07,17,20,28.30
2016,05,07,17,21,28.20
2016,05,07,17,22,28.20
2016,05,07,17,23,28.10
2016,05,07,17,24,28.10
2016,05,07,17,25,28.10
2016,05,07,17,26,28.00
2016,05,07,17,27,28.00
2016,05,07,17,28,27.90
2016,05,07,17,29,27.90
2016,05,07,17,30,27.80
2016,05,07,17,31,27.70
2016,05,07,17,32,27.60
2016,05,07,17,33,27.50
2016,05,07,17,34,27.40
2016,05,07,17,35,27.30
2016,05,07,17,36,27.20
2016,05,07,17,37,27.10
2016,05,07,17,38,27.00
2016,05,07,17,39,26.90
2016,05,07,17,40,26.80